Airfield :
LOGIN :

Register | Disclaimer

   EN    FR    IT 

 










Legend :    VFR   Marginal VFR   IFR   Intensive IFR   Very Intensive IFR
Visi :
Ceiling :
>= 8 km
>= 3000ft
5 to 8 km
1000 to 3000 ft
1500m to 5 km
500 to 1000 ft
800 to 1500m
200 to 500 ft
< 800m
< 200 ft
Symbols :   Thunderstorms  Fog  Heavy snow  Heavy precipitations  Wind > 20 kt
SIGMETs :     Misc.  Thunderstorms  Icing  Turbulence  Mountain Waves  Volcanic Ashes







- Airport Elevation : 24 ft
- IATA code : SGD


EKSB - Sonderborg

CURRENT METAR :
  • 202120Z 10026G37KT 9999 SCT022 BKN026 06/01 Q1020

EXPIRED METARs :
  • 202050Z 09024G34KT 9999 SCT022 BKN026 06/02 Q1020
  • 202020Z 09025G40KT 9999 SCT022 BKN030 07/02 Q1019
  • 201950Z 10024G34KT 9999 SCT022 BKN030 07/02 Q1019
  • 201920Z 10025G35KT 9999 SCT022 BKN028 06/02 Q1019
  • 201850Z 09025G36KT 9999 BKN022 07/02 Q1019

TAF TAF EKSB
Valid from the 20 at 18:00 until the 20 at 23:00 UTC


201721Z 2018/2023 10025KT 9999 BKN020
TEMPO 2018/2021 10030G40KT
No reported NOTAMs for that airfield.



MET'MAP, your aeronautical weather chart ! - Copyright ORBIFLY December 2007 - Disclaimer

ORBIFLY MET'MAP TEAM :

Programming & Development : Alexandra Zaïnal
Concept & Development : Baudouin d'Aumeries
Co-Development & Prog : Marc-Olivier Méhu
Technical & hardware support : Manuel Goepfert

Contact : metmap@orbifly.com




SOURCES & CREDITS :

   NOAA